Location: Byszew
(52.1813°N, 19.2693°E)
Time: 00:30:42
(UTC+00:00)

NOAA 18 - Visible Passes

Search period start: 30 June 2022 00:00
Search period end: 10 July 2022 00:00
Orbit: 840 x 859 km, 98.9° (Epoch: 29 June)

Date Brightness Start Highest point End Pass type
(mag) Time Alt. Az. Time Alt. Az. Time Alt. Az.
30 Jun 6.6 21:09:47 10° SSW 21:14:39 31° W 21:19:34 10° NNW visible
01 Jul 6.3 20:57:22 10° SSW 21:02:29 38° W 21:07:40 10° NNW visible
02 Jul 6.0 20:45:04 10° S 20:50:22 47° W 20:55:44 10° NNW visible
03 Jul 5.7 20:32:50 10° S 20:38:15 58° WSW 20:43:45 10° NNW visible
03 Jul 7.8 22:19:47 10° W 22:20:09 10° W 22:20:32 10° WNW visible
04 Jul 5.5 20:20:40 10° S 20:26:11 70° WSW 20:31:45 10° NNW visible
04 Jul 7.5 22:05:25 10° WSW 22:07:53 13° W 22:10:21 10° WNW visible
05 Jul 5.3 20:08:35 10° SSE 20:14:07 85° WSW 20:19:43 10° NNW visible
05 Jul 7.4 21:52:17 10° SW 21:55:38 16° W 21:59:00 10° NW visible
06 Jul 5.3 19:56:33 10° SSE 20:02:04 80° ENE 20:07:40 10° NNW visible
06 Jul 7.2 21:39:26 10° SW 21:43:24 20° W 21:47:24 10° NW visible
07 Jul 5.4 19:44:35 10° SSE 19:50:03 66° ENE 19:55:35 10° NNW visible
07 Jul 7.0 21:26:46 10° SW 21:31:12 24° W 21:35:40 10° NW visible
08 Jul 6.7 21:14:13 10° SSW 21:19:01 30° W 21:23:51 10° NNW visible
09 Jul 6.4 21:01:48 10° SSW 21:06:51 36° W 21:11:59 10° NNW visible
